Back to catalog

GALAXY 4R

AliveCommunicationsGEO
NORAD 26298·PAYLOAD·🇺🇸 United States

Launched Apr 19, 2000 from Guiana Space Centre

Loading…

TLE

FreshSource: Space-Track

Epoch: Sep 14, 2026, 13:46 UTC

1 26298U 00020A   26257.57423434 -.00000140  00000-0  00000-0 0  9999
2 26298  12.8590  23.3618 0007459 207.5242 324.5262  0.99843269 96519

Track GALAXY 4R in real time with AllMySat

Download on the App Store